Location: Bathurst
(33.4193°S, 149.5775°E)
Time: 01:12:00
(UTC+10:00)

A-11 Canister half - Pass Details

Date: 14 June 2021
Orbit: 1513 x 1687 km, 47.2° (Epoch: 28 July)

Event Time Altitude Azimuth Distance (km) Brightness Sun altitude
Rises 18:14:07 0° 293° (WNW) 4,685 13.5 -15.0°
Reaches altitude 10° 18:17:11 10° 289° (WNW) 3,723 12.4 -15.6°
Maximum altitude 18:26:31 62° 209° (SSW) 1,762 9.3 -17.4°
Enters shadow 18:33:39 21° 134° (SE) 3,095 10.1 -18.9°
